SCP
0 0 0 0 0 0 0 0 0 0 0 0 0 0 0 0 0 0 0 0 0 0 0 0 -0 0 0 0 0 0 0 0 -0 0 0 0 0 -0 0 0 0 0 0 -0
0 0 0 0 0 0 0 0 0 0 0 0 0 0 0 0 0 0 0 0 0 0 0 0 0 0 0 0 0 0 0 0 0 0 0 0 0 0 0 0 0 0 0 0
0 0 0 0 0 0 0 0 0 0 0 0 0 0 0 0 0 0 0 0 0 0 0 0 0 0 0 0 0 0 0 0 0 -0 0 0 0 0 0 0 0 0 0 0
0 0 0 0 0 0 0 0 0 0 0 0 0 0 0 0 0 0 0 0 0 0 0 0 0 0 0 0 0 0 0 0 0 0 0 0 0 0 0 0 0 0 0 0
0 0 0 0 0 0 0 0 0 0 0 0 0 0 0 0 0 0 0 0 0 0 0 0 0 0 0 0 0 0 0 0 0 0 0 0 0 0 0 0 0 0 0 0
0 0 0 0 0 0 0 0 0 0 0 0 0 0 0 0 0 0 0 0 0 0 0 0 0 0 0 0 0 0 0 0 0 0 0 0 0 0 0 0 0 0 0 0
0 0 0 0 0 0 0 0 0 0 0 0 0 0 0 0 0 0 0 0 0 0 0 0 0 0 0 0 0 0 0 0 0 0 0 0 0 0 0 0 0 0 0 0
0 0 0 0 0 0 0 0 0 0 0 0 0 0 0 0 0 0 0 0 0 0 0 0 0 0 0 0 0 0 0 0 0 0 0 0 0 0 0 0 0 0 0 0
0 0 0 0 0 0 0 0 0 0 0 0 0 0 0 0 0 0 0 0 0 0 0 0 0 0 0 0 0 0 0 0 0 0 0 0 0 0 0 0 0 0 0 0
0 0 0 0 0 0 0 0 0 0 0 0 0 0 0 0 0 0 0 0 0 0 0 0 0 0 0 0 0 0 0 0 0 0 0 0 0 0 0 0 0 0 0 0
0 0 0 0 0 0 0 0 0 0 0 0 0 0 0 0 0 0 0 0 0 0 0 0 0 0 0 0 0 0 0 0 0 0 0 0 0 0 0 0 0 0 0 0
0 0 0 0 0 0 0 0 0 0 0 0 0 0 0 0 0 0 0 0 0 0 0 0 0 0 0 0 0 0 0 0 0 0 0 0 0 0 0 0 0 0 0 0
0 0 0 0 0 0 0 0 0 0 0 0 0 0 0 0 0 0 0 0 0 0 0 0 0 0 0 0 0 0 0 0 0 0 0 0 0 0 0 0 0 0 0 0
0 0 0 0 0 0 0 0 0 0 0 0 0 0 0 0 0 0 0 0 0 0 0 0 0 0 0 0 0 0 0 0 0 0 0 0 0 0 0 0 0 0 0 0
0 0 0 0 0 0 0 0 0 0 0 0 0 0 0 0 0 0 0 0 0 0 0 0 0 0 0 0 0 0 0 0 0 0 0 0 0 0 0 0 0 0 0 0
0 0 0 0 0 0 0 0 0 0 0 0 0 0 0 0 0 0 0 0 0 0 0 0 0 0 0 0 0 0 0 0 0 0 0 0 0 0 0 0 0 0 0 0
0 0 0 0 0 0 0 0 0 0 0 0 0 0 0 0 0 0 0 0 0 0 0 0 0 0 0 0 0 0 0 0 0 0 0 0 0 0 0 0 0 0 0 0
0 0 0 0 0 0 0 0 0 0 0 0 0 0 0 0 0 0 0 0 0 0 0 0 0 0 0 0 0 0 0 0 0 0 0 0 0 0 0 0 0 0 0 0
0 0 0 0 0 0 0 0 0 0 0 0 0 0 0 0 0 0 0 0 0 0 0 0 0 0 0 0 0 0 0 0 0 0 0 0 0 0 0 0 0 0 0 0
0 0 0 0 0 0 0 0 0 0 0 0 0 0 0 0 0 0 0 0 0 0 0 0 0 0 0 0 0 0 0 0 0 0 0 0 0 0 0 0 0 0 0 0
0 0 0 0 0 0 0 0 0 0 0 0 0 0 0 0 0 0 0 0 0 0 0 0 0 0 0 0 0 0 0 0 0 0 0 0 0 0 0 0 0 0 0 0
0 0 0 0 0 0 0 0 0 0 0 0 0 0 0 0 0 0 0 0 0 0 0 0 0 0 0 0 0 0 0 0 0 0 0 0 0 0 0 0 0 0 0 0
0 0 0 0 0 0 0 0 0 0 0 0 0 0 0 0 0 0 0 0 0 0 0 0 0 0 0 0 0 0 0 0 0 0 0 0 0 0 0 0 0 0 0 0
0 0 0 0 0 0 0 0 0 0 0 0 0 0 0 0 0 0 0 0 0 0 0 0 0 0 0 0 0 0 0 0 0 0 0 0 0 0 0 0 0 0 0 0
0 0 0 0 0 0 0 0 0 0 0 0 0 0 0 0 0 0 0 0 0 0 0 0 0 0 0 0 0 0 0 0 0 0 0 0 0 0 0 0 0 0 0 0
0 0 0 0 0 0 0 0 0 0 0 0 0 0 0 0 0 0 0 0 0 0 0 0 0 0 0 0 0 0 0 0 0 0 0 0 0 0 0 0 0 0 0 0
0 0 0 0 0 0 0 0 0 0 0 0 0 0 0 0 0 0 0 0 0 0 0 0 0 0 0 0 0 0 -0 0 0 0 0 -0 -0 0 0 0 0 0 0 0
Wind_Speed_500mb
30 27 26 26 27 27 16 17 18 8 20 24 32 23 29 4 19 20 15 15 16 27 21 20 29 21 10 7 8 19 18 8 19 16 14 4 14 25 4 12 8 12 11 24
31 28 25 23 21 25 28 16 22 5 24 18 21 25 12 20 17 19 15 17 15 11 14 16 22 10 12 6 13 7 8 14 19 25 25 19 19 23 17 11 12 25 24 19
33 30 26 21 18 17 20 15 10 20 29 41 21 22 24 24 14 17 12 15 8 16 17 12 16 7 4 8 7 2 4 17 21 25 24 7 14 15 17 19 19 26 25 30
33 32 28 24 17 14 14 16 13 11 15 29 25 22 16 24 17 24 19 20 23 23 18 24 22 20 14 14 11 12 8 23 27 32 28 28 28 37 36 34 31 32 36 39
33 33 31 26 21 15 12 17 12 8 24 14 19 14 24 23 15 6 22 23 26 24 22 20 21 18 21 17 19 18 9 20 25 32 31 37 39 35 40 41 40 41 39 40
36 33 34 30 25 18 11 11 18 16 12 20 21 25 28 19 2 7 11 10 9 21 4 8 14 12 13 12 5 18 16 19 23 30 29 33 29 28 38 38 39 38 37 34
43 36 37 35 31 29 19 12 15 20 21 19 22 19 16 15 18 21 11 10 17 8 5 3 3 7 10 16 15 15 14 21 20 25 27 35 29 16 13 24 29 30 29 26
48 40 40 39 36 34 30 16 16 23 19 20 24 12 19 16 7 18 11 4 3 3 5 13 12 16 19 25 25 20 18 21 23 25 27 34 31 21 16 29 23 23 30 28
50 44 42 42 39 36 32 19 21 17 22 13 16 21 27 18 20 14 13 4 3 5 14 17 27 22 27 23 20 7 22 19 21 26 32 36 25 10 11 12 22 14 19 18
52 50 43 44 42 40 34 18 29 17 27 15 5 12 12 27 21 14 23 14 10 9 16 21 24 26 31 31 29 16 19 20 27 25 29 31 27 7 3 17 9 8 11 10
54 53 49 47 45 43 38 21 26 20 28 8 7 8 10 6 15 17 14 8 16 17 20 21 19 22 22 26 28 30 26 23 24 23 33 42 21 5 18 15 4 5 15 17
57 60 51 51 48 46 40 18 26 31 19 7 5 12 10 1 6 10 8 4 9 7 10 14 13 18 14 23 24 24 30 27 21 24 18 12 4 6 14 18 24 31 24 21
58 60 54 52 51 49 45 21 18 19 26 25 21 18 16 17 12 7 9 19 5 3 8 18 8 14 14 19 21 28 24 22 24 25 28 34 17 17 24 27 32 25 13 15
60 62 54 53 52 50 47 23 19 22 18 23 13 20 13 11 13 13 16 8 3 9 14 22 14 17 18 19 24 25 26 28 21 29 31 44 46 37 27 35 25 22 27 33
65 70 55 52 51 48 44 21 21 28 14 8 20 13 16 10 10 12 16 19 17 22 21 16 16 30 27 31 22 26 27 28 25 21 33 36 36 38 32 25 29 32 38 46
64 71 56 52 51 47 31 14 25 37 24 10 7 14 13 11 12 16 17 19 20 27 25 21 27 10 10 14 23 30 32 36 27 34 37 40 39 37 34 34 37 40 37 37
72 68 58 53 52 43 28 7 23 38 25 10 11 13 15 15 16 18 18 18 20 23 30 29 29 20 15 18 28 44 42 44 38 37 37 39 35 33 31 26 27 34 40 44
73 69 60 57 53 34 18 16 20 35 16 10 8 7 11 21 19 21 21 20 24 21 26 17 20 23 18 14 24 22 24 26 30 31 33 36 36 35 34 36 39 42 40 37
79 74 64 57 29 16 14 23 24 26 8 7 8 12 8 19 27 14 15 16 10 10 16 30 19 19 19 20 19 18 23 27 30 33 34 38 38 39 41 42 34 37 38 35
83 70 26 13 27 28 21 5 2 10 10 7 11 15 8 17 17 19 16 15 11 8 15 20 19 27 51 48 46 41 35 34 33 35 37 39 39 40 40 39 39 37 42 45
62 16 10 40 49 18 10 9 10 13 10 17 20 25 10 8 11 10 14 6 8 8 9 7 10 19 22 17 16 15 20 24 26 27 29 32 35 38 43 46 48 52 56 60
23 36 49 31 11 8 9 10 14 11 10 15 23 26 13 19 9 5 9 7 6 9 9 7 8 2 12 5 11 16 19 21 25 29 34 37 40 45 50 55 60 63 68 70
57 18 9 11 12 9 15 19 9 10 19 21 27 23 15 12 9 2 7 8 10 5 8 9 12 19 4 6 13 20 23 28 35 40 45 50 55 59 63 71 71 70 69 70
9 9 11 7 10 12 3 12 16 20 27 41 37 18 6 8 10 8 8 8 5 8 13 21 3 13 1 10 21 30 36 43 51 57 61 65 67 68 65 66 62 57 59 51
6 6 6 9 14 22 16 28 31 33 38 34 29 18 13 8 5 7 4 6 9 9 10 4 16 3 14 28 35 43 51 55 61 63 64 63 65 61 67 67 61 58 68 79
4 2 7 22 24 21 29 33 38 34 32 28 15 7 5 7 6 9 12 8 10 4 4 19 24 27 34 43 45 52 58 61 66 69 71 71 64 61 60 60 58 71 58 55
4 2 20 24 27 26 33 31 29 26 25 10 8 8 9 9 6 8 8 17 15 26 30 31 36 40 45 51 57 68 63 58 59 62 58 57 56 58 67 67 62 60 52 51
Wind_Direction_500mb
267 273 283 296 311 320 340 284 240 164 179 205 220 228 228 3 247 209 238 295 245 234 243 205 240 220 118 128 204 221 232 274 256 226 64 309 282 288 292 276 233 255 309 292
263 266 272 287 306 328 344 274 274 221 191 230 214 223 230 224 227 226 215 226 230 252 238 237 242 207 67 185 225 306 169 230 248 246 218 216 246 234 246 270 291 265 276 281
259 258 262 269 285 309 331 275 231 199 211 249 295 216 220 206 215 268 242 272 214 208 222 231 220 179 157 213 210 46 344 250 263 282 322 339 225 228 243 263 268 277 273 284
252 253 251 257 262 283 315 241 251 350 197 221 235 268 242 216 181 229 212 224 234 219 222 210 225 206 140 201 162 199 241 247 253 263 274 288 280 284 282 265 246 250 275 288
246 248 245 244 249 255 266 287 288 257 271 291 226 190 236 237 175 242 216 239 222 243 237 246 236 205 208 208 176 229 207 256 267 274 279 276 269 261 274 269 267 270 270 267
245 241 241 236 234 232 243 257 271 271 238 220 238 232 224 223 238 188 316 277 230 227 114 20 19 4 27 352 262 213 229 256 254 260 273 278 269 265 263 264 265 270 268 273
241 240 234 231 227 224 222 275 271 260 252 231 223 251 221 223 210 263 167 250 245 66 92 67 244 224 234 233 215 281 239 251 265 269 275 264 268 290 308 290 296 298 294 292
233 237 231 227 224 224 229 248 246 266 263 256 232 240 219 210 185 232 227 93 49 115 181 231 214 227 236 233 234 205 247 266 269 262 257 269 267 264 288 255 268 304 306 302
229 231 231 224 220 221 226 238 235 242 271 258 266 214 227 220 209 169 196 172 142 201 248 221 244 235 239 228 171 219 254 246 264 264 264 266 276 120 9 345 269 28 334 321
225 229 230 223 217 215 211 223 235 227 249 253 223 251 234 233 272 240 166 168 190 219 236 241 240 240 246 256 236 174 207 230 243 245 255 266 282 107 103 255 316 20 347 345
225 227 224 218 214 210 207 228 229 214 247 234 220 270 242 256 247 243 122 175 212 206 238 252 245 252 253 258 249 263 262 245 237 242 256 263 22 288 247 25 334 331 315 315
221 219 217 213 209 205 200 215 234 216 237 7 198 215 217 231 357 312 167 333 314 249 239 233 260 251 240 259 257 223 245 257 292 289 301 100 79 323 321 309 295 298 290 293
219 208 209 207 203 201 198 208 220 206 230 240 231 224 218 236 244 256 288 210 11 269 321 320 304 260 294 262 248 251 263 245 255 271 271 291 318 313 292 282 284 283 281 280
212 200 201 199 198 196 192 195 213 203 244 246 167 207 227 221 218 229 231 271 286 260 272 267 264 265 259 271 285 287 292 309 276 265 260 271 274 287 289 278 271 253 264 278
209 197 193 192 191 188 185 197 204 199 223 281 149 153 198 207 212 218 222 223 234 247 233 238 249 262 276 272 270 269 267 270 269 282 309 305 294 296 291 276 276 272 280 284
207 191 182 186 181 178 166 188 219 209 213 274 225 127 169 195 202 200 204 215 226 237 246 251 255 218 273 265 262 274 255 259 283 298 297 291 288 287 281 277 275 278 282 281
191 176 171 176 170 163 190 201 151 193 186 222 246 188 170 196 195 194 204 208 219 232 239 243 257 248 202 261 263 272 279 278 270 267 276 276 273 273 284 278 279 281 279 278
168 163 164 166 164 162 164 133 140 169 180 219 251 122 175 185 200 201 204 210 212 220 243 233 246 232 229 260 266 274 272 278 276 274 276 274 276 275 273 274 279 284 284 283
164 156 161 156 153 147 141 151 159 170 157 229 242 231 187 177 212 171 189 211 210 239 241 237 240 235 228 241 254 285 294 289 286 286 279 275 275 280 282 280 273 269 274 279
155 153 139 133 147 155 158 169 182 211 239 252 257 240 173 201 176 190 169 185 208 227 227 235 236 251 258 266 273 272 279 283 286 287 283 280 278 279 279 272 276 279 280 282
148 129 100 140 138 130 132 150 178 181 201 209 209 197 189 199 187 196 206 208 199 242 156 232 247 242 228 210 247 267 281 286 283 280 280 279 280 280 282 285 284 283 282 281
131 136 124 121 117 139 167 185 165 200 194 176 169 170 177 167 201 222 184 242 171 252 109 241 248 51 82 145 271 277 275 274 279 282 283 283 283 283 285 286 287 287 288 288
121 104 124 141 162 192 191 179 170 178 156 161 152 158 163 157 186 235 199 227 229 49 222 237 260 116 126 258 276 279 279 287 289 290 289 290 289 288 287 287 287 291 292 290
101 131 148 171 176 200 213 164 136 142 147 156 160 142 115 148 185 187 203 220 328 247 257 251 179 91 256 301 303 301 296 295 293 291 290 289 289 290 293 295 293 295 290 287
100 140 162 181 86 129 139 111 131 139 141 139 141 153 147 147 167 213 252 189 237 234 255 34 73 45 294 292 296 297 299 298 295 294 296 296 294 291 291 288 285 285 288 293
42 184 156 130 123 131 140 136 125 137 137 131 161 137 164 183 220 183 211 227 224 231 350 343 322 314 312 306 304 300 298 295 295 291 289 288 287 287 287 291 281 286 287 292
107 258 136 126 134 129 127 134 133 140 159 155 136 198 170 199 222 231 223 244 293 322 312 315 321 319 309 305 301 301 300 297 294 290 288 288 287 285 290 289 286 291 290 289
Wind_Speed_850mb
30 27 26 26 27 27 16 17 18 8 20 24 32 23 29 4 19 20 15 15 16 27 21 20 29 21 10 7 8 19 18 8 19 16 14 4 14 25 4 12 8 12 11 24
31 28 25 23 21 25 28 16 22 5 24 18 21 25 12 20 17 19 15 17 15 11 14 16 22 10 12 6 13 7 8 14 19 25 25 19 19 23 17 11 12 25 24 19
33 30 26 21 18 17 20 15 10 20 29 41 21 22 24 24 14 17 12 15 8 16 17 12 16 7 4 8 7 2 4 17 21 25 24 7 14 15 17 19 19 26 25 30
33 32 28 24 17 14 14 16 13 11 15 29 25 22 16 24 17 24 19 20 23 23 18 24 22 20 14 14 11 12 8 23 27 32 28 28 28 37 36 34 31 32 36 39
33 33 31 26 21 15 12 17 12 8 24 14 19 14 24 23 15 6 22 23 26 24 22 20 21 18 21 17 19 18 9 20 25 32 31 37 39 35 40 41 40 41 39 40
36 33 34 30 25 18 11 11 18 16 12 20 21 25 28 19 2 7 11 10 9 21 4 8 14 12 13 12 5 18 16 19 23 30 29 33 29 28 38 38 39 38 37 34
43 36 37 35 31 29 19 12 15 20 21 19 22 19 16 15 18 21 11 10 17 8 5 3 3 7 10 16 15 15 14 21 20 25 27 35 29 16 13 24 29 30 29 26
48 40 40 39 36 34 30 16 16 23 19 20 24 12 19 16 7 18 11 4 3 3 5 13 12 16 19 25 25 20 18 21 23 25 27 34 31 21 16 29 23 23 30 28
50 44 42 42 39 36 32 19 21 17 22 13 16 21 27 18 20 14 13 4 3 5 14 17 27 22 27 23 20 7 22 19 21 26 32 36 25 10 11 12 22 14 19 18
52 50 43 44 42 40 34 18 29 17 27 15 5 12 12 27 21 14 23 14 10 9 16 21 24 26 31 31 29 16 19 20 27 25 29 31 27 7 3 17 9 8 11 10
54 53 49 47 45 43 38 21 26 20 28 8 7 8 10 6 15 17 14 8 16 17 20 21 19 22 22 26 28 30 26 23 24 23 33 42 21 5 18 15 4 5 15 17
57 60 51 51 48 46 40 18 26 31 19 7 5 12 10 1 6 10 8 4 9 7 10 14 13 18 14 23 24 24 30 27 21 24 18 12 4 6 14 18 24 31 24 21
58 60 54 52 51 49 45 21 18 19 26 25 21 18 16 17 12 7 9 19 5 3 8 18 8 14 14 19 21 28 24 22 24 25 28 34 17 17 24 27 32 25 13 15
60 62 54 53 52 50 47 23 19 22 18 23 13 20 13 11 13 13 16 8 3 9 14 22 14 17 18 19 24 25 26 28 21 29 31 44 46 37 27 35 25 22 27 33
65 70 55 52 51 48 44 21 21 28 14 8 20 13 16 10 10 12 16 19 17 22 21 16 16 30 27 31 22 26 27 28 25 21 33 36 36 38 32 25 29 32 38 46
64 71 56 52 51 47 31 14 25 37 24 10 7 14 13 11 12 16 17 19 20 27 25 21 27 10 10 14 23 30 32 36 27 34 37 40 39 37 34 34 37 40 37 37
72 68 58 53 52 43 28 7 23 38 25 10 11 13 15 15 16 18 18 18 20 23 30 29 29 20 15 18 28 44 42 44 38 37 37 39 35 33 31 26 27 34 40 44
73 69 60 57 53 34 18 16 20 35 16 10 8 7 11 21 19 21 21 20 24 21 26 17 20 23 18 14 24 22 24 26 30 31 33 36 36 35 34 36 39 42 40 37
79 74 64 57 29 16 14 23 24 26 8 7 8 12 8 19 27 14 15 16 10 10 16 30 19 19 19 20 19 18 23 27 30 33 34 38 38 39 41 42 34 37 38 35
83 70 26 13 27 28 21 5 2 10 10 7 11 15 8 17 17 19 16 15 11 8 15 20 19 27 51 48 46 41 35 34 33 35 37 39 39 40 40 39 39 37 42 45
62 16 10 40 49 18 10 9 10 13 10 17 20 25 10 8 11 10 14 6 8 8 9 7 10 19 22 17 16 15 20 24 26 27 29 32 35 38 43 46 48 52 56 60
23 36 49 31 11 8 9 10 14 11 10 15 23 26 13 19 9 5 9 7 6 9 9 7 8 2 12 5 11 16 19 21 25 29 34 37 40 45 50 55 60 63 68 70
57 18 9 11 12 9 15 19 9 10 19 21 27 23 15 12 9 2 7 8 10 5 8 9 12 19 4 6 13 20 23 28 35 40 45 50 55 59 63 71 71 70 69 70
9 9 11 7 10 12 3 12 16 20 27 41 37 18 6 8 10 8 8 8 5 8 13 21 3 13 1 10 21 30 36 43 51 57 61 65 67 68 65 66 62 57 59 51
6 6 6 9 14 22 16 28 31 33 38 34 29 18 13 8 5 7 4 6 9 9 10 4 16 3 14 28 35 43 51 55 61 63 64 63 65 61 67 67 61 58 68 79
4 2 7 22 24 21 29 33 38 34 32 28 15 7 5 7 6 9 12 8 10 4 4 19 24 27 34 43 45 52 58 61 66 69 71 71 64 61 60 60 58 71 58 55
4 2 20 24 27 26 33 31 29 26 25 10 8 8 9 9 6 8 8 17 15 26 30 31 36 40 45 51 57 68 63 58 59 62 58 57 56 58 67 67 62 60 52 51
Wind_Direction_850mb
267 273 283 296 311 320 340 284 240 164 179 205 220 228 228 3 247 209 238 295 245 234 243 205 240 220 118 128 204 221 232 274 256 226 64 309 282 288 292 276 233 255 309 292
263 266 272 287 306 328 344 274 274 221 191 230 214 223 230 224 227 226 215 226 230 252 238 237 242 207 67 185 225 306 169 230 248 246 218 216 246 234 246 270 291 265 276 281
259 258 262 269 285 309 331 275 231 199 211 249 295 216 220 206 215 268 242 272 214 208 222 231 220 179 157 213 210 46 344 250 263 282 322 339 225 228 243 263 268 277 273 284
252 253 251 257 262 283 315 241 251 350 197 221 235 268 242 216 181 229 212 224 234 219 222 210 225 206 140 201 162 199 241 247 253 263 274 288 280 284 282 265 246 250 275 288
246 248 245 244 249 255 266 287 288 257 271 291 226 190 236 237 175 242 216 239 222 243 237 246 236 205 208 208 176 229 207 256 267 274 279 276 269 261 274 269 267 270 270 267
245 241 241 236 234 232 243 257 271 271 238 220 238 232 224 223 238 188 316 277 230 227 114 20 19 4 27 352 262 213 229 256 254 260 273 278 269 265 263 264 265 270 268 273
241 240 234 231 227 224 222 275 271 260 252 231 223 251 221 223 210 263 167 250 245 66 92 67 244 224 234 233 215 281 239 251 265 269 275 264 268 290 308 290 296 298 294 292
233 237 231 227 224 224 229 248 246 266 263 256 232 240 219 210 185 232 227 93 49 115 181 231 214 227 236 233 234 205 247 266 269 262 257 269 267 264 288 255 268 304 306 302
229 231 231 224 220 221 226 238 235 242 271 258 266 214 227 220 209 169 196 172 142 201 248 221 244 235 239 228 171 219 254 246 264 264 264 266 276 120 9 345 269 28 334 321
225 229 230 223 217 215 211 223 235 227 249 253 223 251 234 233 272 240 166 168 190 219 236 241 240 240 246 256 236 174 207 230 243 245 255 266 282 107 103 255 316 20 347 345
225 227 224 218 214 210 207 228 229 214 247 234 220 270 242 256 247 243 122 175 212 206 238 252 245 252 253 258 249 263 262 245 237 242 256 263 22 288 247 25 334 331 315 315
221 219 217 213 209 205 200 215 234 216 237 7 198 215 217 231 357 312 167 333 314 249 239 233 260 251 240 259 257 223 245 257 292 289 301 100 79 323 321 309 295 298 290 293
219 208 209 207 203 201 198 208 220 206 230 240 231 224 218 236 244 256 288 210 11 269 321 320 304 260 294 262 248 251 263 245 255 271 271 291 318 313 292 282 284 283 281 280
212 200 201 199 198 196 192 195 213 203 244 246 167 207 227 221 218 229 231 271 286 260 272 267 264 265 259 271 285 287 292 309 276 265 260 271 274 287 289 278 271 253 264 278
209 197 193 192 191 188 185 197 204 199 223 281 149 153 198 207 212 218 222 223 234 247 233 238 249 262 276 272 270 269 267 270 269 282 309 305 294 296 291 276 276 272 280 284
207 191 182 186 181 178 166 188 219 209 213 274 225 127 169 195 202 200 204 215 226 237 246 251 255 218 273 265 262 274 255 259 283 298 297 291 288 287 281 277 275 278 282 281
191 176 171 176 170 163 190 201 151 193 186 222 246 188 170 196 195 194 204 208 219 232 239 243 257 248 202 261 263 272 279 278 270 267 276 276 273 273 284 278 279 281 279 278
168 163 164 166 164 162 164 133 140 169 180 219 251 122 175 185 200 201 204 210 212 220 243 233 246 232 229 260 266 274 272 278 276 274 276 274 276 275 273 274 279 284 284 283
164 156 161 156 153 147 141 151 159 170 157 229 242 231 187 177 212 171 189 211 210 239 241 237 240 235 228 241 254 285 294 289 286 286 279 275 275 280 282 280 273 269 274 279
155 153 139 133 147 155 158 169 182 211 239 252 257 240 173 201 176 190 169 185 208 227 227 235 236 251 258 266 273 272 279 283 286 287 283 280 278 279 279 272 276 279 280 282
148 129 100 140 138 130 132 150 178 181 201 209 209 197 189 199 187 196 206 208 199 242 156 232 247 242 228 210 247 267 281 286 283 280 280 279 280 280 282 285 284 283 282 281
131 136 124 121 117 139 167 185 165 200 194 176 169 170 177 167 201 222 184 242 171 252 109 241 248 51 82 145 271 277 275 274 279 282 283 283 283 283 285 286 287 287 288 288
121 104 124 141 162 192 191 179 170 178 156 161 152 158 163 157 186 235 199 227 229 49 222 237 260 116 126 258 276 279 279 287 289 290 289 290 289 288 287 287 287 291 292 290
101 131 148 171 176 200 213 164 136 142 147 156 160 142 115 148 185 187 203 220 328 247 257 251 179 91 256 301 303 301 296 295 293 291 290 289 289 290 293 295 293 295 290 287
100 140 162 181 86 129 139 111 131 139 141 139 141 153 147 147 167 213 252 189 237 234 255 34 73 45 294 292 296 297 299 298 295 294 296 296 294 291 291 288 285 285 288 293
42 184 156 130 123 131 140 136 125 137 137 131 161 137 164 183 220 183 211 227 224 231 350 343 322 314 312 306 304 300 298 295 295 291 289 288 287 287 287 291 281 286 287 292
107 258 136 126 134 129 127 134 133 140 159 155 136 198 170 199 222 231 223 244 293 322 312 315 321 319 309 305 301 301 300 297 294 290 288 288 287 285 290 289 286 291 290 289